Date String (YYYY-MM-DD hh:mm:ss) UTC,Instrument flags,absolute air pressure of the measurement (hPa),sample flow rate (lpm),inlet stack bypass flow (lpm),air temperature of the measurement (°C),ambient temperature measured by the external sensor (°C),aerosol sample conditioner tube jacket temperature (°C),OPC LED temperature (°C),internal box temperature (°C),relative humidity of the measurement (%),span deviation,mass concentration of particles derived from Lorenz-Mie calculation of OPC scattering (μg/m³),mass concentration of particles derived from Lorenz-Mie calculation of OPC scattering (μg/m³),mass concentration of particles derived from Lorenz-Mie calculation of OPC scattering (μg/m³)
DateTimeUTC,F1_M11,P_M11,Q1_M11,Q2_M11,T1_M11,T2_M11,T3_M11,T4_M11,T5_M11,U1_M11,ZSPAN_M11,X0_M11,X2_M11,X1_M11
2024-05-29 12:00:00,SystemResetWarning,0831.4,5.00,000.00,028.6,027.7,000.0,037.1,030.4,020.0,0000.0,0012.01,0004.57,0003.60
2024-05-29 12:01:00,SystemResetWarning,0831.4,5.01,000.00,028.6,027.7,000.0,037.0,030.4,020.2,0000.0,0011.98,0004.58,0003.60
2024-05-29 12:02:00,SystemResetWarning,0831.3,5.00,000.00,028.6,027.7,000.0,037.0,030.3,020.3,0000.0,0011.25,0004.62,0003.61
2024-05-29 12:03:00,SystemResetWarning,0831.3,5.00,000.00,028.6,027.7,000.0,037.0,030.4,020.4,0000.0,0011.01,0004.66,0003.63
2024-05-29 12:04:00,SystemResetWarning,0831.3,5.00,000.00,028.6,027.8,000.0,037.0,030.4,020.3,0000.0,0010.44,0004.68,0003.65
2024-05-29 12:05:00,SystemResetWarning,0831.3,5.00,000.00,028.6,027.8,000.0,037.0,030.4,020.3,0000.0,0010.54,0004.70,0003.66
2024-05-29 12:06:00,SystemResetWarning,0831.3,5.00,000.00,028.6,027.8,000.0,037.0,030.4,020.2,0000.0,0010.79,0004.73,0003.69
2024-05-29 12:07:00,SystemResetWarning,0831.4,4.99,000.00,028.6,027.8,000.0,037.0,030.4,020.3,0000.0,0010.95,0004.76,0003.71
2024-05-29 12:08:00,SystemResetWarning,0831.4,5.00,000.00,028.6,027.8,000.0,037.0,030.4,020.5,0000.0,0010.56,0004.77,0003.72
2024-05-29 12:09:00,SystemResetWarning,0831.3,5.01,000.00,028.6,027.8,000.0,037.0,030.4,021.0,0000.0,0010.27,0004.74,0003.72
2024-05-29 12:10:00,SystemResetWarning,0831.4,5.00,000.00,028.6,027.7,000.0,037.0,030.4,021.0,0000.0,0010.88,0004.75,0003.74
2024-05-29 12:11:00,SystemResetWarning,0831.3,5.00,000.00,028.6,027.7,000.0,037.0,030.3,020.9,0000.0,0011.23,0004.78,0003.77
2024-05-29 12:12:00,SystemResetWarning,0831.3,4.99,000.00,028.6,027.7,000.0,037.0,030.3,020.8,0000.0,0011.24,0004.78,0003.78
2024-05-29 12:13:00,SystemResetWarning,0831.3,5.00,000.00,028.6,027.7,000.0,037.0,030.4,020.7,0000.0,0012.36,0004.77,0003.77
2024-05-29 12:14:00,SystemResetWarning,0831.3,5.00,000.00,028.6,027.7,000.0,037.0,030.4,020.7,0000.0,0012.36,0004.74,0003.77
2024-05-29 12:15:00,SystemResetWarning,0831.3,5.00,000.00,028.6,027.7,000.0,037.0,030.4,020.5,0000.0,0012.47,0004.79,0003.78
2024-05-29 12:16:00,SystemResetWarning,0831.3,5.00,000.00,028.6,027.7,000.0,037.0,030.3,020.7,0000.0,0012.69,0004.81,0003.77
2024-05-29 12:17:00,SystemResetWarning,0831.3,5.01,000.00,028.6,027.7,000.0,037.0,030.3,021.2,0000.0,0013.47,0004.82,0003.77
2024-05-29 12:18:00,SystemResetWarning,0831.3,5.00,000.00,028.6,027.7,000.0,037.0,030.3,021.2,0000.0,0014.44,0004.83,0003.78
2024-05-29 12:19:00,SystemResetWarning,0831.3,5.00,000.00,028.5,027.7,000.0,037.0,030.3,021.1,0000.0,0014.50,0004.83,0003.80
2024-05-29 12:20:00,SystemResetWarning,0831.3,5.00,000.00,028.5,027.7,000.0,037.0,030.3,021.4,0000.0,0014.57,0004.83,0003.82
2024-05-29 12:21:00,SystemResetWarning,0831.3,4.99,000.00,028.5,027.7,000.0,037.0,030.3,021.6,0000.0,0014.12,0004.88,0003.84
2024-05-29 12:22:00,SystemResetWarning,0831.3,5.00,000.00,028.5,027.7,000.0,037.0,030.3,021.6,0000.0,0013.68,0004.91,0003.85
2024-05-29 12:23:00,SystemResetWarning,0831.3,5.00,000.00,028.5,027.7,000.0,036.9,030.3,021.6,0000.0,0013.81,0004.98,0003.86
2024-05-29 12:24:00,SystemResetWarning,0831.3,4.99,000.00,028.5,027.7,000.0,036.9,030.3,021.5,0000.0,0012.73,0005.00,0003.88
2024-05-29 12:25:00,SystemResetWarning,0831.3,5.00,000.00,028.5,027.7,000.0,036.9,030.3,021.7,0000.0,0012.61,0005.04,0003.90
2024-05-29 12:26:00,SystemResetWarning,0831.3,5.01,000.00,028.5,027.7,000.0,036.9,030.3,021.7,0000.0,0012.67,0005.06,0003.91
2024-05-29 12:27:00,SystemResetWarning,0831.2,5.00,000.00,028.5,027.7,000.0,036.9,030.2,021.9,0000.0,0013.13,0005.09,0003.94
2024-05-29 12:28:00,SystemResetWarning,0831.2,5.01,000.00,028.5,027.6,000.0,036.9,030.2,021.9,0000.0,0012.07,0005.09,0003.96
2024-05-29 12:29:00,SystemResetWarning,0831.2,5.00,000.00,028.5,027.6,000.0,036.9,030.3,021.8,0000.0,0011.01,0005.10,0003.96
2024-05-29 12:30:00,SystemResetWarning,0831.2,5.01,000.00,028.5,027.6,000.0,036.9,030.3,021.8,0000.0,0010.88,0005.07,0003.96
2024-05-29 12:31:00,SystemResetWarning,0831.1,5.00,000.00,028.5,027.6,000.0,036.9,030.2,022.2,0000.0,0011.47,0005.11,0003.95
2024-05-29 12:32:00,SystemResetWarning,0831.1,5.00,000.00,028.5,027.6,000.0,036.9,030.2,022.0,0000.0,0011.60,0005.12,0003.94
2024-05-29 12:33:00,SystemResetWarning,0831.1,4.99,000.00,028.5,027.6,000.0,036.9,030.3,022.1,0000.0,0011.82,0005.11,0003.93
2024-05-29 12:34:00,SystemResetWarning,0831.1,5.00,000.00,028.5,027.7,000.0,036.9,030.3,022.0,0000.0,0011.96,0005.05,0003.92
2024-05-29 12:35:00,SystemResetWarning,0831.1,5.00,000.00,028.5,027.7,000.0,036.9,030.3,021.9,0000.0,0012.58,0005.03,0003.91
2024-05-29 12:36:00,SystemResetWarning,0831.1,5.01,000.00,028.5,027.7,000.0,036.9,030.3,022.2,0000.0,0013.02,0005.01,0003.91
2024-05-29 12:37:00,SystemResetWarning,0831.1,5.01,000.00,028.5,027.7,000.0,036.9,030.3,022.3,0000.0,0013.75,0004.98,0003.89
2024-05-29 12:38:00,SystemResetWarning,0831.1,5.00,000.00,028.5,027.6,000.0,036.9,030.3,022.0,0000.0,0013.84,0004.96,0003.88
2024-05-29 12:39:00,SystemResetWarning,0831.1,5.00,000.00,028.5,027.6,000.0,036.9,030.3,022.7,0000.0,0014.41,0004.97,0003.86
2024-05-29 12:40:00,SystemResetWarning,0831.1,5.00,000.00,028.5,027.6,000.0,036.9,030.3,022.9,0000.0,0014.61,0004.98,0003.85
2024-05-29 12:41:00,SystemResetWarning,0831.1,5.00,000.00,028.5,027.6,000.0,036.9,030.3,022.9,0000.0,0015.45,0005.01,0003.85
2024-05-29 12:42:00,SystemResetWarning,0831.1,5.00,000.00,028.5,027.6,000.0,036.9,030.2,023.1,0000.0,0015.16,0005.02,0003.85
2024-05-29 12:43:00,SystemResetWarning,0831.1,5.02,000.00,028.5,027.6,000.0,036.8,030.2,023.0,0000.0,0015.18,0005.00,0003.86
2024-05-29 12:44:00,SystemResetWarning,0831.2,5.01,000.00,028.5,027.6,000.0,036.8,030.2,022.9,0000.0,0014.93,0004.97,0003.85
2024-05-29 12:45:00,SystemResetWarning,0831.1,4.99,000.00,028.5,027.6,000.0,036.8,030.2,023.3,0000.0,0015.79,0004.96,0003.86
2024-05-29 12:46:00,SystemResetWarning,0831.1,4.99,000.00,028.5,027.6,000.0,036.8,030.2,023.3,0000.0,0016.32,0005.00,0003.87
2024-05-29 12:47:00,SystemResetWarning,0831.1,5.00,000.00,028.5,027.6,000.0,036.8,030.2,023.1,0000.0,0016.61,0005.00,0003.87
2024-05-29 12:48:00,SystemResetWarning,0831.1,5.01,000.00,028.5,027.6,000.0,036.8,030.2,023.3,0000.0,0016.45,0005.02,0003.88
2024-05-29 12:49:00,SystemResetWarning,0831.1,5.01,000.00,028.5,027.6,000.0,036.8,030.2,023.5,0000.0,0016.03,0005.07,0003.91
2024-05-29 12:50:00,SystemResetWarning,0831.1,4.98,000.00,028.5,027.7,000.0,036.8,030.2,023.4,0000.0,0015.58,0005.11,0003.93
2024-05-29 12:51:00,SystemResetWarning,0831.1,5.00,000.00,028.5,027.7,000.0,036.8,030.3,023.8,0000.0,0016.56,0005.15,0003.94
2024-05-29 12:52:00,SystemResetWarning,0831.1,5.01,000.00,028.5,027.7,000.0,036.8,030.2,024.0,0000.0,0016.52,0005.16,0003.94
2024-05-29 12:53:00,SystemResetWarning,0831.1,5.01,000.00,028.5,027.7,000.0,036.8,030.2,023.8,0000.0,0016.54,0005.17,0003.96
2024-05-29 12:54:00,SystemResetWarning,0831.2,4.99,000.00,028.5,027.7,000.0,036.8,030.2,023.6,0000.0,0017.19,0005.21,0003.98
2024-05-29 12:55:00,SystemResetWarning,0831.1,5.00,000.00,028.5,027.7,000.0,036.8,030.3,023.8,0000.0,0018.18,0005.29,0003.99
2024-05-29 12:56:00,SystemResetWarning,0831.2,5.01,000.00,028.5,027.7,000.0,036.8,030.3,023.7,0000.0,0018.09,0005.34,0004.01
2024-05-29 12:57:00,SystemResetWarning,0831.1,5.02,000.00,028.5,027.7,000.0,036.8,030.3,023.9,0000.0,0017.77,0005.35,0004.02
2024-05-29 12:58:00,SystemResetWarning,0831.1,4.98,000.00,028.5,027.8,000.0,036.8,030.3,023.3,0000.0,0017.09,0005.37,0004.04
2024-05-29 12:59:00,SystemResetWarning,0831.1,5.00,000.00,028.5,027.8,000.0,036.8,030.3,023.3,0000.0,0016.55,0005.39,0004.06
